Probability
40 36 30 26 23 21 22 21 19 18 17 16 14 12 10 7 7 7 8 10 11 10 9 8 8 10 11 10 9 9 9 8 4 2 0 0 0 0 0 0 1 1 2
48 43 37 33 29 27 25 21 17 16 16 16 15 13 11 10 10 9 9 11 10 8 8 8 8 9 10 10 10 10 10 9 6 3 1 1 0 1 1 1 2 3 3
53 48 42 40 39 36 31 24 19 17 16 18 19 17 15 15 15 12 11 11 10 8 8 8 8 9 9 8 8 9 9 9 8 6 4 3 2 2 2 2 3 3 3
51 48 44 43 43 41 36 30 25 21 20 21 21 20 19 20 20 17 14 13 11 9 8 8 8 8 7 6 6 6 7 7 8 7 6 5 3 3 3 3 3 3 2
51 49 44 41 40 40 38 34 30 27 25 24 22 20 21 22 22 18 16 14 12 10 8 8 8 8 6 4 4 5 5 5 6 6 7 6 3 3 3 4 3 3 2
49 46 40 37 37 39 39 37 33 30 29 26 24 22 21 21 18 14 14 16 14 11 10 9 9 8 6 4 3 3 3 3 3 5 6 6 3 2 3 5 4 3 3
42 39 35 33 34 37 39 37 32 29 28 27 26 26 24 18 12 8 10 15 15 12 12 12 10 9 8 6 4 3 3 3 3 5 6 5 2 2 4 5 5 3 3
36 34 31 29 30 32 33 31 28 25 24 24 26 28 25 16 7 4 6 11 13 13 13 12 11 10 9 7 5 4 4 3 4 6 6 3 1 2 3 4 4 3 2
31 30 28 26 25 26 26 25 22 20 20 21 24 26 24 14 5 2 4 8 11 11 11 10 11 10 8 6 5 6 5 4 4 4 4 2 1 1 1 2 3 4 3
30 27 25 25 23 22 21 20 18 17 18 20 22 22 19 12 6 3 5 9 11 10 8 8 9 9 5 3 4 6 7 5 4 3 2 1 1 1 1 2 5 6 5
31 28 25 23 22 20 17 16 16 16 17 19 19 17 14 11 7 4 5 8 10 9 8 8 9 6 2 1 3 6 7 5 4 3 3 2 3 3 3 3 5 6 6
32 29 24 20 18 15 14 14 13 14 15 17 16 14 12 11 8 4 3 5 8 9 9 10 9 4 0 0 1 3 4 3 3 4 4 4 4 5 4 3 3 4 5
27 25 20 16 13 12 12 13 12 12 13 15 15 14 13 12 9 6 2 2 5 8 8 9 7 3 1 0 0 1 1 2 4 6 6 5 5 7 6 4 3 3 3
18 18 17 15 13 12 12 12 11 10 11 13 14 14 14 13 10 8 5 4 4 6 7 7 5 3 1 1 1 0 1 2 5 7 7 6 6 7 8 7 5 4 4
12 14 16 15 13 11 10 10 9 8 9 10 11 12 12 11 8 7 7 6 5 5 6 6 5 4 4 3 2 0 0 1 4 7 8 7 7 7 8 8 7 5 5
8 10 13 14 12 9 9 8 7 6 5 6 6 7 7 6 4 3 4 4 4 3 4 6 7 7 6 6 3 1 1 1 3 6 8 8 7 7 8 8 7 5 5
4 6 9 11 10 8 8 8 8 6 4 2 2 3 3 2 1 0 0 1 1 2 4 6 7 7 7 6 4 3 2 3 3 5 7 8 8 8 8 8 8 7 6
2 3 5 7 8 7 7 8 8 7 3 1 0 1 1 1 0 0 0 1 2 3 5 6 6 6 6 6 4 3 3 4 5 6 7 9 10 10 9 9 9 8 8
2 2 2 4 5 5 5 6 7 6 2 0 0 0 0 0 0 0 1 2 4 5 6 6 6 6 6 5 4 3 4 5 5 6 7 9 11 11 11 10 10 9 8
1 0 0 2 3 3 4 5 6 4 1 0 0 0 0 0 0 0 1 3 4 4 4 5 6 6 5 4 3 3 3 4 5 5 6 8 9 10 10 9 9 8 7
0 0 0 0 2 3 4 5 5 3 1 0 0 0 0 0 0 0 1 3 3 3 3 4 4 4 3 2 2 3 3 4 5 6 6 6 6 6 7 7 6 6 5
0 0 0 0 1 3 4 4 4 3 1 0 0 0 0 0 0 1 2 3 3 3 3 3 3 3 2 1 1 3 4 5 6 6 6 5 4 3 4 4 4 4 4
0 0 0 0 0 2 4 4 4 3 1 0 0 0 0 0 1 2 3 3 3 3 3 2 2 2 1 0 1 4 6 6 6 6 5 2 1 2 2 2 2 2 3
0 0 0 0 0 1 3 4 4 4 2 0 0 0 0 1 2 3 3 3 2 2 1 1 1 1 0 0 2 5 6 6 5 5 3 1 1 1 1 1 1 1 2
0 0 0 0 1 2 3 3 4 4 2 1 1 1 1 1 2 3 2 1 1 1 0 0 0 1 1 2 4 5 5 4 3 3 2 1 1 1 0 0 0 1 1
0 0 0 0 1 2 3 3 3 3 3 2 2 2 2 2 2 2 2 1 0 0 0 0 0 1 2 3 4 4 3 2 1 1 1 1 2 1 0 0 0 1 0
Wind_Speed
9 9 8 8 7 6 6 6 6 5 5 5 5 5 5 5 5 4 4 4 4 3 3 3 3 2 2 2 2 2 2 3 3 3 1 1 1 2 2 2 2 2 3
9 7 7 7 7 6 6 6 5 5 5 5 5 5 5 5 5 5 5 5 4 4 4 3 3 3 3 3 2 3 3 3 3 3 2 2 2 3 3 3 3 3 3
8 7 7 7 7 7 6 5 5 5 5 5 5 6 6 6 5 5 5 5 5 4 4 4 4 3 4 3 3 3 3 2 2 2 2 2 2 2 1 2 2 2 3
8 8 7 7 8 8 7 6 5 5 5 5 5 5 6 6 6 5 5 4 4 4 4 5 5 5 5 4 4 3 3 2 2 2 2 2 2 1 2 2 2 2 2
8 8 8 6 6 6 6 5 5 5 6 5 5 5 5 5 5 5 5 5 5 5 4 5 5 6 7 5 4 3 3 3 2 2 2 1 2 2 3 3 3 2 2
7 7 6 5 5 6 6 5 5 5 5 5 5 5 5 5 6 8 7 5 4 5 5 4 5 6 7 8 7 7 6 5 5 4 3 3 4 4 3 3 2 2 3
6 5 5 5 4 6 6 5 5 5 4 4 5 5 5 6 7 8 8 5 5 5 5 4 4 4 4 4 5 6 6 8 8 6 6 6 5 5 4 4 4 4 4
6 5 6 6 5 5 5 5 4 4 4 4 4 5 5 5 6 6 6 5 4 5 5 5 5 4 4 3 3 3 4 5 6 6 6 6 6 5 6 5 5 3 1
5 5 6 6 6 5 5 4 4 4 3 3 4 4 5 5 6 6 4 3 3 4 3 3 3 4 4 4 3 3 3 4 5 6 7 6 7 6 5 3 3 3 2
5 5 5 6 6 5 5 4 3 3 4 3 3 4 5 5 5 6 5 3 3 3 2 2 3 3 3 4 4 4 4 4 3 2 3 4 4 4 6 6 6 5 3
5 5 4 5 5 5 4 3 3 3 3 3 3 3 4 5 5 6 7 4 4 3 2 2 3 3 4 5 5 5 6 4 2 2 2 2 2 3 4 5 5 6 5
4 4 4 4 4 4 3 3 2 3 3 3 3 3 3 4 5 6 7 6 5 4 4 3 3 4 5 5 4 5 5 3 2 2 2 3 3 4 4 5 6 6 6
3 3 3 3 3 3 3 3 3 3 4 4 3 4 4 3 3 6 7 7 6 4 3 4 3 4 4 4 4 5 3 2 2 2 3 4 4 4 3 2 3 3 3
2 2 2 3 2 2 2 3 4 4 4 4 4 4 3 3 2 2 3 3 4 3 2 2 3 3 3 3 3 2 3 3 3 4 4 3 2 2 2 2 2 2 2
1 2 2 2 3 2 2 2 4 4 5 5 4 4 4 4 5 7 5 4 4 3 2 0 0 0 1 2 2 2 2 2 3 3 3 3 2 2 3 2 2 2 2
1 2 2 2 2 2 2 1 2 4 5 6 7 7 5 7 7 7 6 6 5 5 4 2 2 3 3 3 3 2 2 3 3 3 3 3 3 3 3 2 2 2 3
2 2 2 2 3 3 3 3 2 3 3 3 4 6 6 6 6 6 5 4 4 5 3 3 3 3 4 3 3 3 3 3 2 2 3 2 2 2 2 2 2 2 3
1 1 1 2 2 3 3 4 3 3 3 2 3 4 5 5 5 5 5 4 2 3 3 3 3 3 3 3 3 3 3 2 2 2 3 3 3 2 2 2 3 3 3
1 1 1 1 1 2 2 3 3 3 3 2 1 2 3 3 3 4 5 4 4 4 4 4 3 3 3 3 3 3 3 2 2 2 3 3 3 3 3 3 3 3 2
1 2 1 0 0 1 1 1 2 2 2 2 2 3 2 2 1 2 3 3 3 4 4 4 3 3 3 3 3 2 2 2 3 2 3 2 2 2 2 2 2 2 2
1 1 1 0 0 1 1 2 2 2 2 2 2 3 3 3 3 3 3 3 4 4 4 3 3 3 3 3 3 3 4 3 3 3 3 2 2 2 2 2 2 2 2
1 1 1 1 1 1 1 2 2 2 2 2 2 1 3 2 2 3 3 4 4 3 4 3 3 3 4 4 4 4 4 4 3 3 3 3 3 2 2 2 2 2 2
1 1 1 1 1 1 1 1 1 1 2 2 2 1 2 2 2 3 3 3 3 3 3 3 3 3 3 3 4 4 4 4 4 4 4 3 3 3 2 2 3 3 3
1 1 1 1 0 1 1 1 1 1 1 2 2 2 2 3 2 2 3 2 2 2 2 2 3 3 4 3 3 3 3 4 4 4 5 4 3 3 3 2 3 3 3
1 1 1 1 1 1 1 1 1 1 2 2 2 2 2 2 2 2 2 2 2 3 3 3 2 3 4 4 3 3 3 4 4 3 3 3 4 4 3 3 3 3 2
1 1 1 1 1 1 1 1 1 2 2 2 2 2 1 2 2 2 2 2 2 2 2 2 3 3 3 3 3 3 3 3 3 3 3 3 3 3 3 3 4 3 3
Wind_Direction
193 195 196 192 192 194 194 198 203 205 200 197 198 196 198 202 201 199 209 205 207 224 228 216 231 234 233 227 217 206 195 178 219 260 240 218 188 188 182 199 193 199 203
190 187 190 186 185 191 197 200 201 203 203 201 196 194 200 202 200 200 210 208 207 217 225 223 236 240 236 224 212 215 210 196 190 236 245 223 222 202 190 195 201 206 208
181 179 183 186 186 191 196 194 197 201 202 204 196 196 199 199 200 207 208 208 205 210 214 220 233 228 236 232 221 221 219 212 189 206 234 228 235 202 180 210 210 218 217
177 178 185 193 194 195 195 192 196 199 202 205 201 201 200 198 199 204 205 209 212 215 216 219 223 219 224 224 225 225 215 202 196 206 228 229 224 209 166 193 223 227 226
177 182 192 198 199 194 191 194 199 205 209 203 198 201 200 197 199 197 205 211 213 219 225 225 227 225 225 222 224 217 207 203 197 204 224 222 221 195 206 201 212 221 238
175 185 186 184 194 197 196 194 196 204 207 199 200 201 200 204 206 205 203 213 215 217 228 237 240 233 233 232 232 219 205 202 206 206 218 223 231 223 204 196 190 189 236
170 176 176 182 193 204 195 188 196 203 201 203 205 198 203 211 210 213 210 207 215 220 223 228 241 243 234 224 231 226 225 220 209 200 212 223 220 215 196 203 204 205 222
169 176 183 184 190 185 180 189 198 200 201 214 221 214 208 216 213 218 213 208 219 230 228 222 225 241 237 216 207 222 238 236 223 213 216 224 222 212 200 203 208 213 244
172 183 189 183 179 176 185 201 205 201 208 217 223 220 216 223 215 212 194 197 218 237 237 227 219 224 239 208 192 216 247 267 254 231 228 231 228 218 201 176 180 180 225
185 191 191 187 184 189 198 207 207 206 216 221 229 219 216 219 212 204 194 195 211 230 242 237 225 225 218 195 196 204 229 251 260 269 260 262 244 231 214 199 193 195 198
182 185 192 188 189 190 195 202 200 201 210 218 223 226 215 212 210 202 198 195 203 208 214 230 235 227 219 210 206 214 228 235 237 239 249 259 258 240 228 219 207 199 202
166 176 192 192 197 190 189 204 205 201 206 219 220 233 233 218 207 204 205 209 199 199 212 217 226 224 230 224 222 237 238 230 228 239 243 242 236 236 235 228 223 221 218
151 177 191 193 197 189 186 205 219 213 211 219 210 221 234 228 216 205 203 209 205 209 221 220 224 229 235 234 237 242 238 218 216 228 240 242 237 236 239 241 237 233 241
166 191 190 189 201 204 197 201 208 218 214 214 212 212 220 221 218 207 203 205 207 217 231 237 233 236 243 247 251 241 225 218 215 227 240 248 250 240 234 227 231 227 236
197 195 194 200 199 208 217 215 215 224 214 205 210 205 198 214 225 206 193 201 198 204 186 160 337 265 259 263 258 250 236 225 226 234 237 243 246 247 250 237 214 214 221
221 219 202 201 199 200 203 246 256 235 239 226 219 209 208 209 208 208 204 204 195 170 154 187 217 230 235 241 242 246 237 228 228 229 235 239 242 243 250 249 216 207 226
211 231 215 202 200 205 200 200 242 284 277 256 232 213 206 204 202 199 196 192 186 163 171 209 221 230 237 234 232 231 236 233 221 222 233 243 253 251 248 247 235 223 227
223 231 225 217 208 206 205 210 212 217 231 254 252 223 218 211 202 194 179 152 176 184 200 216 230 223 223 227 231 233 236 228 217 227 238 240 239 239 244 244 236 233 233
240 254 244 231 221 217 210 212 216 216 216 224 243 253 226 201 192 193 176 179 199 209 211 215 221 224 221 224 227 227 226 225 223 223 231 230 231 234 238 236 230 232 225
248 269 246 209 228 244 229 221 218 212 212 210 218 226 211 175 193 206 204 204 209 217 218 222 226 222 217 215 216 219 224 229 232 234 236 231 227 224 232 233 223 216 219
243 276 301 349 288 243 241 231 212 203 210 213 223 219 193 193 207 212 211 214 215 220 223 224 224 219 215 209 207 216 221 223 223 230 233 228 218 218 218 216 221 218 218
212 242 250 247 264 269 254 233 212 206 206 210 224 216 188 192 206 215 217 226 225 224 223 216 220 221 215 210 205 209 221 223 220 221 224 220 216 212 206 204 213 219 215
214 223 243 263 261 265 260 240 204 196 195 207 220 219 212 220 218 220 226 231 228 229 231 223 220 224 224 220 213 205 212 220 216 211 211 212 211 211 207 211 216 215 218
212 214 226 248 257 261 233 210 205 205 208 214 216 213 223 231 230 234 239 237 228 223 223 223 220 217 219 229 232 222 219 220 213 206 199 196 200 207 208 211 216 216 217
227 211 210 198 198 210 192 190 207 228 226 221 222 222 224 227 232 239 243 242 239 231 229 223 221 218 215 220 225 232 225 212 211 202 191 188 193 202 204 208 212 214 213
239 224 206 189 198 206 192 194 212 226 230 224 216 213 211 212 224 236 242 250 247 242 241 236 235 227 220 216 222 221 216 212 204 194 186 181 187 201 201 207 208 208 206